Wind_Speed
6 7 9 13 14 9 13 11 20 24 26 24 27 24 29 29 22 19 26 27 29 33 33 34 42 45 45 43 45 46 46 46 44 43 43 47 49 46 44 43 44 43 42
7 7 8 9 8 2 11 3 14 27 29 26 25 19 22 33 26 26 28 28 25 31 36 36 37 38 39 42 38 38 38 38 37 36 36 36 35 36 37 38 36 38 38
7 5 6 8 9 9 8 5 3 7 16 19 18 17 15 22 21 23 22 23 24 26 29 31 36 39 42 41 43 38 33 34 36 37 40 38 36 37 37 38 39 40 42
3 4 5 10 12 12 7 7 4 2 5 7 9 14 13 16 19 19 18 23 26 29 31 32 35 37 34 34 38 37 35 34 35 36 36 38 39 40 40 42 43 42 42
4 7 7 9 7 7 5 7 9 3 3 8 9 12 14 19 21 22 21 22 25 24 26 27 28 28 28 29 31 32 32 32 34 35 36 36 37 38 39 40 39 40 41
3 3 2 2 1 2 2 4 8 4 4 5 9 11 11 14 18 20 20 21 23 25 26 28 29 29 32 32 33 33 34 33 33 33 35 35 36 36 39 39 39 40 40
1 2 2 1 0 2 3 2 3 4 5 6 8 8 10 11 12 15 17 19 21 23 25 27 27 28 31 32 32 32 32 31 32 33 33 34 35 36 37 39 39 40 40
3 3 3 3 4 5 4 4 4 5 6 7 10 11 13 13 15 18 20 21 23 25 26 27 28 29 31 31 32 31 32 31 34 33 33 34 36 36 37 38 39 39 39
3 3 2 2 2 3 4 5 7 9 10 11 13 14 15 15 17 20 22 23 25 27 29 30 31 33 34 33 33 34 35 33 37 36 36 37 36 36 35 36 37 38 38
6 6 7 8 8 7 8 8 9 10 11 11 13 15 17 18 20 23 24 26 27 28 30 31 33 35 36 38 38 39 39 36 36 37 37 38 38 37 36 36 37 38 39
7 8 10 10 10 11 12 13 13 13 15 16 18 20 21 23 23 23 25 27 28 29 30 32 33 35 36 37 38 39 39 40 38 37 37 38 38 37 37 38 39 39 40
7 8 9 11 11 11 11 13 13 15 16 17 19 21 22 24 24 25 26 27 29 31 31 32 34 35 36 38 39 40 40 40 39 39 38 38 38 39 39 40 40 41 43
4 6 8 10 13 14 14 14 15 16 17 18 19 20 22 24 25 27 29 31 32 34 35 35 35 36 37 39 40 40 40 39 39 38 37 37 38 38 40 40 40 41 44
3 5 7 8 11 13 13 13 14 15 17 18 19 22 24 26 28 29 31 34 35 35 36 36 36 35 37 37 37 38 39 39 39 37 37 36 37 37 37 37 40 41 42
3 5 7 8 10 11 11 13 14 15 17 19 20 22 25 27 29 32 34 35 36 36 37 39 40 39 38 38 38 38 39 38 36 36 36 36 35 34 35 38 39 40 41
5 5 9 11 13 12 13 14 16 18 20 21 23 26 29 31 33 35 37 38 39 39 39 39 40 40 38 38 38 38 39 38 36 34 32 32 33 35 36 37 38 38 39
5 6 8 12 14 17 18 19 19 22 24 26 28 30 32 34 36 38 41 42 44 45 43 39 40 39 37 36 37 37 37 37 37 32 30 28 32 33 34 35 36 37 38
7 8 8 10 13 16 19 22 23 25 26 29 32 34 36 37 38 39 39 45 46 45 44 43 40 38 37 36 36 36 36 35 36 28 25 29 31 32 32 33 34 36 35
8 10 10 11 14 16 19 22 24 27 29 31 34 37 38 38 41 42 41 43 45 44 43 42 39 37 35 35 35 36 33 28 21 23 27 29 29 30 31 32 34 33 28
8 12 15 17 17 19 22 24 27 30 33 34 37 38 37 37 43 42 41 44 42 38 40 39 36 33 33 33 34 26 19 22 25 27 28 27 28 29 31 32 31 27 23
13 16 19 22 25 25 26 28 31 33 35 38 40 37 38 42 37 40 40 39 37 35 34 33 30 30 31 27 19 22 24 26 26 26 25 27 28 28 30 29 26 24 20
19 22 24 26 29 29 29 31 33 36 40 40 37 36 40 36 38 38 32 30 29 29 27 26 26 23 18 22 24 26 25 25 25 25 26 28 25 26 26 25 24 23 20
21 24 29 32 32 30 31 34 39 43 43 39 32 33 32 32 29 26 24 23 22 22 23 19 17 21 22 24 25 25 25 26 27 27 29 27 25 24 24 23 23 22 21
23 27 33 34 32 31 34 40 44 40 31 24 24 19 16 20 22 21 20 19 18 17 17 21 22 24 23 23 24 25 26 27 28 30 29 28 25 26 26 25 24 22 22
27 30 35 34 31 32 38 41 36 26 23 22 21 19 19 17 15 16 17 17 18 21 22 22 21 23 25 25 24 26 27 27 26 26 26 26 26 26 26 27 26 25 23
29 31 35 31 30 35 37 28 20 21 22 22 21 20 19 18 17 17 18 19 20 20 21 23 24 22 21 22 25 27 28 30 30 30 30 29 28 26 25 25 25 24 24
Wind_Direction
69 80 82 21 22 88 127 131 169 181 187 204 216 229 228 227 233 236 246 247 252 258 255 262 260 262 270 274 276 280 282 285 289 289 288 290 291 292 294 295 294 291 285
66 74 75 76 26 355 31 105 155 170 187 197 200 218 227 225 226 237 241 253 262 254 254 259 264 270 271 275 280 283 286 289 292 290 290 292 296 295 295 292 289 284 283
28 39 80 89 84 58 35 37 156 177 188 194 197 202 203 212 228 236 248 254 266 274 274 273 279 283 286 285 285 287 283 287 293 294 301 302 295 288 285 288 289 288 287
62 67 67 88 81 75 79 94 92 246 258 238 239 239 243 244 249 262 265 272 277 279 277 282 286 286 284 287 281 286 293 292 292 287 287 286 287 288 289 288 286 286 286
90 106 120 107 84 91 102 152 144 77 196 219 226 230 269 261 259 266 265 268 280 277 276 280 284 289 292 290 289 286 286 288 288 290 288 288 288 288 288 286 287 287 286
360 26 86 146 112 131 161 158 179 224 218 245 240 239 238 237 244 252 257 263 264 270 275 280 283 285 287 286 285 288 290 289 288 288 287 290 290 289 287 287 287 287 287
240 321 321 314 145 158 175 203 223 246 249 255 258 256 263 271 275 276 278 281 284 285 287 288 288 287 286 287 288 287 288 289 289 291 292 290 289 287 288 289 289 288 289
204 225 251 287 312 331 331 323 314 303 298 293 291 295 294 296 297 297 294 294 292 290 288 288 287 287 288 292 294 296 297 294 294 295 294 293 293 293 292 292 292 292 293
261 268 272 273 278 272 277 291 298 299 303 304 306 305 302 304 303 301 299 297 296 297 298 296 295 294 295 295 296 298 299 297 298 299 295 293 293 293 294 294 294 295 295
253 261 266 262 260 267 275 281 283 283 283 285 290 298 305 306 303 301 300 298 298 300 302 301 299 297 296 297 297 296 295 294 294 293 292 291 292 293 294 295 296 297 299
260 266 274 289 293 296 298 296 295 297 299 300 304 306 308 309 307 307 306 303 301 300 299 297 296 295 294 294 293 292 292 292 292 292 292 292 291 292 293 294 296 297 298
255 270 283 288 286 281 280 278 278 280 282 287 291 294 299 302 304 306 305 303 301 300 300 298 297 295 293 292 292 292 293 293 292 291 291 291 291 292 293 294 295 297 298
239 272 285 292 295 298 294 292 297 300 299 300 300 299 298 298 297 297 298 299 299 298 298 297 295 293 293 293 293 293 293 291 290 289 290 290 290 290 291 292 295 297 298
246 299 301 299 295 293 294 298 299 298 298 297 297 299 301 301 301 300 299 298 299 299 299 297 295 295 295 293 294 294 294 292 291 290 290 291 291 290 292 293 295 298 300
236 284 293 292 290 292 303 304 303 301 300 299 300 298 297 300 302 301 300 300 301 300 298 297 297 300 302 302 300 297 296 294 292 290 290 291 291 291 293 296 299 301 301
243 275 285 286 286 292 293 297 301 299 296 296 299 300 302 305 304 305 306 306 304 302 301 299 299 299 300 301 301 299 296 293 289 286 287 290 292 295 298 299 300 301 303
235 270 292 305 302 297 294 296 297 295 299 305 306 305 303 301 300 302 303 305 305 303 302 307 306 301 301 300 302 302 299 295 291 286 287 295 298 297 298 300 301 302 306
252 275 295 305 309 308 303 296 294 296 301 304 303 301 296 296 298 299 301 300 297 299 305 308 307 303 302 302 306 305 301 299 293 288 297 298 298 299 300 301 303 307 309
306 300 304 308 302 310 306 302 302 303 307 308 306 306 305 301 296 298 298 291 296 303 308 305 304 303 306 308 309 307 304 298 298 303 298 298 300 300 302 304 307 308 307
318 316 316 311 313 316 312 309 312 313 313 309 308 306 308 298 297 296 296 294 302 309 310 303 303 307 310 311 310 306 308 311 304 299 299 301 303 304 305 307 307 306 305
335 332 329 326 323 319 317 318 318 316 315 312 310 308 303 297 295 298 298 303 312 305 305 306 309 311 315 314 311 311 308 304 303 303 304 305 306 306 308 308 307 306 300
325 326 329 328 322 319 320 322 321 319 316 313 308 303 301 298 300 304 310 310 311 312 311 313 316 318 316 313 313 312 312 311 309 308 308 307 303 310 313 313 309 305 298
325 325 325 324 323 323 324 326 324 321 318 314 308 297 295 301 310 316 315 317 318 320 321 322 320 316 316 318 318 315 316 315 314 312 312 307 301 306 311 314 310 303 298
320 323 323 322 322 325 330 328 324 323 326 332 338 341 330 322 319 323 324 325 328 326 326 326 324 323 323 323 321 319 318 316 315 313 311 309 303 302 303 304 304 303 298
314 320 321 320 324 331 331 327 329 335 337 332 329 328 325 328 337 332 330 334 334 333 330 328 329 327 323 321 320 320 320 319 318 317 313 309 306 303 301 299 298 298 298
308 317 318 320 330 335 332 335 352 2 355 345 339 334 329 329 331 332 335 337 335 333 332 330 328 331 330 329 327 327 326 324 321 318 315 311 308 304 301 298 297 299 300
Height
5713 5713 5713 5713 5713 5712 5715 5717 5719 5725 5732 5737 5741 5746 5750 5755 5758 5761 5765 5768 5770 5773 5775 5775 5776 5777 5776 5775 5774 5773 5771 5770 5768 5766 5764 5763 5760 5758 5755 5753 5751 5748 5746
5713 5713 5713 5715 5717 5717 5717 5721 5723 5727 5731 5735 5739 5743 5745 5750 5754 5759 5762 5764 5764 5766 5767 5768 5768 5768 5767 5767 5765 5764 5762 5760 5760 5758 5756 5753 5751 5748 5745 5742 5739 5736 5734
5712 5714 5715 5715 5716 5718 5720 5722 5725 5728 5731 5734 5738 5740 5743 5747 5751 5754 5755 5758 5759 5760 5761 5761 5760 5760 5759 5758 5757 5755 5752 5750 5749 5747 5744 5742 5739 5736 5734 5732 5729 5726 5725
5715 5714 5714 5714 5716 5718 5721 5723 5726 5729 5733 5735 5737 5739 5742 5745 5748 5749 5750 5752 5753 5754 5754 5754 5753 5752 5750 5748 5746 5745 5744 5741 5739 5737 5734 5733 5730 5727 5724 5723 5719 5717 5714
5717 5717 5717 5717 5718 5719 5722 5724 5726 5729 5730 5733 5736 5739 5741 5743 5745 5746 5746 5746 5747 5747 5746 5745 5744 5743 5741 5739 5738 5737 5734 5732 5731 5728 5726 5722 5720 5717 5715 5712 5709 5706 5704
5717 5718 5718 5719 5720 5721 5723 5725 5726 5727 5729 5732 5734 5736 5738 5739 5740 5741 5741 5741 5741 5740 5739 5737 5736 5734 5734 5731 5729 5727 5726 5723 5720 5717 5716 5712 5709 5707 5705 5702 5699 5696 5693
5721 5721 5721 5721 5722 5723 5725 5726 5727 5728 5730 5732 5733 5733 5734 5734 5735 5736 5737 5736 5735 5733 5732 5730 5728 5727 5725 5724 5722 5720 5717 5713 5709 5707 5705 5701 5699 5696 5693 5691 5688 5686 5682
5722 5723 5723 5723 5723 5723 5725 5726 5727 5729 5730 5731 5733 5732 5732 5731 5731 5732 5733 5730 5729 5728 5726 5723 5721 5719 5715 5714 5711 5709 5706 5702 5698 5697 5694 5691 5687 5685 5682 5679 5677 5674 5671
5721 5721 5722 5723 5724 5724 5725 5725 5726 5726 5726 5727 5728 5729 5728 5727 5727 5727 5725 5723 5722 5720 5717 5714 5712 5709 5706 5705 5701 5697 5695 5691 5688 5685 5683 5680 5678 5675 5671 5669 5667 5664 5660
5719 5720 5720 5720 5720 5721 5722 5723 5724 5724 5725 5726 5726 5725 5724 5723 5722 5721 5719 5717 5715 5713 5709 5707 5703 5699 5696 5692 5690 5688 5685 5683 5679 5676 5673 5670 5667 5663 5660 5658 5655 5652 5648
5717 5717 5717 5719 5719 5720 5720 5721 5721 5722 5722 5722 5721 5719 5718 5717 5716 5715 5713 5711 5708 5705 5701 5697 5694 5690 5687 5684 5681 5678 5675 5671 5669 5666 5663 5659 5656 5653 5650 5647 5644 5641 5638
5715 5715 5716 5716 5717 5717 5717 5718 5718 5717 5717 5716 5715 5713 5712 5711 5710 5708 5706 5703 5699 5696 5693 5689 5685 5681 5678 5674 5670 5667 5664 5661 5658 5655 5652 5648 5645 5642 5639 5637 5633 5630 5627
5712 5712 5713 5713 5714 5714 5713 5713 5713 5712 5711 5710 5709 5708 5706 5705 5703 5701 5698 5695 5692 5688 5684 5680 5677 5673 5669 5665 5661 5657 5653 5650 5647 5644 5641 5638 5635 5633 5630 5627 5624 5620 5616
5709 5710 5710 5710 5710 5710 5710 5709 5708 5707 5706 5705 5703 5702 5700 5698 5695 5691 5688 5684 5681 5678 5674 5671 5667 5663 5660 5655 5651 5647 5644 5640 5636 5633 5630 5628 5626 5623 5621 5617 5614 5610 5605
5706 5707 5708 5708 5708 5708 5706 5705 5704 5703 5701 5700 5698 5695 5692 5689 5686 5683 5679 5675 5671 5668 5663 5659 5656 5652 5648 5644 5640 5636 5633 5629 5626 5623 5621 5618 5616 5613 5611 5607 5603 5598 5594
5704 5705 5705 5705 5705 5704 5703 5701 5700 5698 5696 5694 5692 5690 5687 5684 5680 5676 5671 5666 5661 5657 5654 5650 5646 5642 5638 5635 5630 5626 5622 5619 5616 5613 5610 5608 5606 5604 5600 5596 5593 5588 5583
5702 5702 5702 5702 5702 5700 5700 5697 5696 5694 5692 5690 5687 5683 5679 5676 5671 5667 5662 5656 5651 5647 5643 5641 5637 5633 5628 5624 5620 5616 5612 5608 5605 5603 5601 5599 5598 5594 5591 5587 5583 5578 5572
5700 5699 5698 5698 5697 5696 5695 5693 5691 5688 5685 5682 5677 5673 5668 5665 5661 5657 5652 5646 5639 5635 5634 5631 5626 5622 5617 5614 5610 5606 5602 5599 5596 5594 5592 5591 5588 5585 5581 5577 5572 5567 5561
5698 5697 5695 5694 5692 5690 5689 5687 5684 5681 5678 5674 5670 5665 5661 5657 5651 5646 5641 5633 5630 5628 5624 5621 5616 5612 5608 5604 5600 5596 5592 5589 5587 5586 5584 5582 5579 5575 5572 5567 5562 5557 5553
5694 5693 5692 5690 5688 5684 5682 5680 5677 5673 5669 5664 5659 5654 5650 5645 5639 5633 5628 5624 5622 5618 5614 5610 5607 5603 5599 5595 5591 5588 5585 5583 5581 5579 5576 5573 5570 5566 5562 5558 5553 5549 5546
5690 5688 5687 5685 5682 5678 5675 5672 5668 5664 5659 5653 5647 5642 5639 5634 5627 5622 5619 5616 5612 5609 5605 5602 5599 5595 5591 5588 5585 5583 5580 5577 5575 5572 5569 5565 5561 5558 5554 5549 5545 5542 5539
5686 5684 5681 5678 5675 5671 5667 5663 5659 5654 5648 5641 5635 5631 5627 5622 5617 5614 5611 5607 5604 5602 5598 5595 5592 5588 5586 5584 5580 5577 5574 5571 5568 5565 5561 5557 5554 5550 5546 5542 5538 5535 5533
5681 5679 5676 5672 5669 5663 5659 5654 5649 5643 5636 5629 5624 5619 5615 5613 5610 5607 5604 5601 5598 5595 5592 5589 5587 5585 5582 5579 5575 5572 5569 5565 5562 5558 5554 5550 5547 5543 5540 5536 5532 5529 5527
5676 5674 5670 5665 5661 5656 5651 5646 5640 5633 5626 5621 5617 5612 5610 5608 5605 5602 5600 5597 5594 5591 5589 5587 5584 5581 5577 5574 5571 5567 5563 5559 5555 5551 5547 5543 5539 5536 5533 5529 5526 5523 5521
5671 5668 5664 5659 5654 5649 5644 5639 5632 5627 5623 5618 5614 5610 5607 5604 5601 5599 5597 5594 5592 5589 5587 5584 5580 5577 5574 5570 5566 5562 5557 5552 5548 5544 5540 5536 5532 5528 5525 5522 5518 5516 5513
5666 5663 5658 5653 5648 5643 5639 5634 5629 5625 5621 5616 5611 5607 5604 5601 5599 5597 5595 5592 5590 5587 5584 5581 5577 5573 5569 5565 5561 5557 5552 5548 5543 5538 5533 5528 5524 5520 5516 5513 5510 5508 5506